When you browse on this site, cookies collect data to enhance your experience and personalize the content and advertising you see.
Visit our Privacy Policy to learn more. By continuing to use the site, you agree to this use of cookies and data.
  • In Hungary
  • List of Countries
  • For 7 days
  • Water Temperature
  • Satellite Maps
  • Weather Map
  • News
  • Weather Widgets
  • user-avatar
    Login

    Hourly Weather Burdygino

    Today, 21 January, Monday

    Time Temperature Precipitation Wind Pressure Humidity
    00:00 -15°C° 0 mm 2 mps 756 mmHg 97%
    01:00 -12°C° 0 mm 1 mps 757 mmHg 97%
    02:00 -14°C° 0 mm 2 mps 757 mmHg 97%
    03:00 -15°C° 0 mm 2 mps 757 mmHg 97%
    04:00 -16°C° 0 mm 3 mps 757 mmHg 98%
    05:00 -16°C° 0 mm 3 mps 757 mmHg 98%
    06:00 -16°C° 0 mm 3 mps 758 mmHg 98%
    07:00 -16°C° 0 mm 3 mps 758 mmHg 97%
    08:00 -17°C° 0 mm 4 mps 758 mmHg 97%
    09:00 -17°C° 0 mm 4 mps 758 mmHg 97%
    10:00 -18°C° 0 mm 5 mps 758 mmHg 96%
    11:00 -17°C° 0 mm 5 mps 758 mmHg 96%
    12:00 -17°C° 0 mm 5 mps 758 mmHg 96%
    13:00 -17°C° 0 mm 5 mps 758 mmHg 96%
    14:00 -17°C° 0 mm 5 mps 757 mmHg 95%
    15:00 -17°C° 0 mm 6 mps 757 mmHg 95%
    16:00 -17°C° 0 mm 6 mps 757 mmHg 95%
    17:00 -17°C° 0 mm 6 mps 756 mmHg 95%
    18:00 -16°C° 0 mm 6 mps 756 mmHg 94%
    19:00 -16°C° 0 mm 6 mps 755 mmHg 94%
    20:00 -17°C° 0 mm 7 mps 755 mmHg 92%
    21:00 -17°C° 0 mm 7 mps 754 mmHg 90%
    22:00 -16°C° 0 mm 8 mps 753 mmHg 89%
    23:00 -16°C° 0.5 mm 8 mps 752 mmHg 90%

    Tomorrow, 22 January, Tuesday

    Time Temperature Precipitation Wind Pressure Humidity
    00:00 -15°C° 0.5 mm 9 mps 751 mmHg 91%
    01:00 -14°C° 0.5 mm 9 mps 751 mmHg 92%
    02:00 -12°C° 0.7 mm 9 mps 750 mmHg 92%
    03:00 -12°C° 0.7 mm 9 mps 749 mmHg 92%
    04:00 -11°C° 0.7 mm 9 mps 749 mmHg 92%
    05:00 -11°C° 0.6 mm 9 mps 748 mmHg 93%
    06:00 -10°C° 0.6 mm 8 mps 748 mmHg 93%
    07:00 -8°C° 0.6 mm 8 mps 747 mmHg 93%
    08:00 -8°C° 0.5 mm 7 mps 747 mmHg 93%
    09:00 -8°C° 0.5 mm 6 mps 748 mmHg 93%
    10:00 -7°C° 0.5 mm 5 mps 748 mmHg 94%
    11:00 -10°C° 0.1 mm 5 mps 748 mmHg 94%
    12:00 -11°C° 0.1 mm 5 mps 748 mmHg 94%
    13:00 -12°C° 0.1 mm 4 mps 749 mmHg 94%
    14:00 -14°C° 0 mm 4 mps 749 mmHg 94%
    15:00 -14°C° 0 mm 4 mps 750 mmHg 94%
    16:00 -14°C° 0 mm 4 mps 751 mmHg 94%
    17:00 -16°C° 0 mm 4 mps 752 mmHg 95%
    18:00 -16°C° 0 mm 3 mps 752 mmHg 96%
    19:00 -17°C° 0 mm 3 mps 753 mmHg 97%
    20:00 -18°C° 0 mm 3 mps 754 mmHg 98%
    21:00 -19°C° 0 mm 3 mps 754 mmHg 98%
    22:00 -19°C° 0 mm 2 mps 755 mmHg 98%
    23:00 -20°C° 0 mm 2 mps 755 mmHg 99%

    Day after tomorrow, 23 January, Wednesday

    Time Temperature Precipitation Wind Pressure Humidity
    00:00 -20°C° 0 mm 2 mps 755 mmHg 99%
    01:00 -21°C° 0 mm 2 mps 756 mmHg 99%
    02:00 -21°C° 0 mm 2 mps 756 mmHg 99%
    03:00 -23°C° 0 mm 2 mps 756 mmHg 99%
    04:00 -24°C° 0 mm 2 mps 757 mmHg 99%
    05:00 -24°C° 0 mm 2 mps 757 mmHg 99%
    06:00 -24°C° 0 mm 2 mps 757 mmHg 99%
    07:00 -25°C° 0 mm 2 mps 757 mmHg 99%
    08:00 -22°C° 0 mm 1 mps 758 mmHg 99%
    09:00 -22°C° 0 mm 1 mps 758 mmHg 99%
    10:00 -22°C° 0 mm 1 mps 759 mmHg 98%
    11:00 -21°C° 0 mm 1 mps 759 mmHg 98%
    12:00 -20°C° 0 mm 1 mps 759 mmHg 97%
    13:00 -21°C° 0 mm 2 mps 760 mmHg 96%
    14:00 -20°C° 0 mm 1 mps 760 mmHg 96%
    15:00 -20°C° 0 mm 1 mps 761 mmHg 97%
    16:00 -21°C° 0 mm 1 mps 761 mmHg 97%
    17:00 -22°C° 0 mm 1 mps 761 mmHg 97%
    18:00 -23°C° 0 mm 1 mps 762 mmHg 98%
    19:00 -24°C° 0 mm 1 mps 762 mmHg 98%
    20:00 -24°C° 0 mm 1 mps 763 mmHg 98%
    21:00 -24°C° 0 mm 1 mps 763 mmHg 98%
    22:00 -24°C° 0 mm 1 mps 764 mmHg 97%
    23:00 -24°C° 0 mm 1 mps 764 mmHg 97%

    24 January, Thursday

    Time Temperature Precipitation Wind Pressure Humidity
    00:00 -24°C° 0 mm 1 mps 764 mmHg 97%
    01:00 -24°C° 0 mm 1 mps 765 mmHg 97%
    02:00 -24°C° 0 mm 1 mps 765 mmHg 97%
    03:00 -24°C° 0 mm 1 mps 765 mmHg 97%
    04:00 -24°C° 0 mm 1 mps 765 mmHg 97%
    05:00 -24°C° 0 mm 1 mps 766 mmHg 97%
    06:00 -24°C° 0 mm 1 mps 766 mmHg 96%
    07:00 -24°C° 0 mm 1 mps 766 mmHg 96%
    08:00 -26°C° 0 mm 2 mps 766 mmHg 95%
    09:00 -26°C° 0 mm 2 mps 766 mmHg 95%
    10:00 -25°C° 0 mm 2 mps 766 mmHg 94%
    11:00 -25°C° 0 mm 3 mps 766 mmHg 93%
    12:00 -23°C° 0 mm 3 mps 766 mmHg 92%
    13:00 -22°C° 0 mm 3 mps 766 mmHg 91%
    14:00 -22°C° 0 mm 4 mps 766 mmHg 90%
    15:00 -22°C° 0 mm 4 mps 765 mmHg 89%
    16:00 -20°C° 0 mm 4 mps 765 mmHg 89%
    17:00 -21°C° 0 mm 5 mps 764 mmHg 89%
    18:00 -20°C° 0 mm 5 mps 764 mmHg 89%
    19:00 -21°C° 0 mm 6 mps 763 mmHg 88%
    20:00 -20°C° 0.4 mm 6 mps 763 mmHg 90%
    21:00 -20°C° 0.4 mm 7 mps 762 mmHg 92%
    22:00 -19°C° 0.4 mm 8 mps 761 mmHg 94%
    23:00 -18°C° 0.7 mm 8 mps 761 mmHg 92%

    25 January, Friday

    Time Temperature Precipitation Wind Pressure Humidity
    00:00 -17°C° 0.7 mm 8 mps 760 mmHg 91%
    01:00 -17°C° 0.7 mm 8 mps 760 mmHg 90%
    02:00 -17°C° 0.6 mm 8 mps 759 mmHg 91%
    03:00 -17°C° 0.6 mm 8 mps 759 mmHg 92%
    04:00 -17°C° 0.6 mm 8 mps 758 mmHg 93%
    05:00 -17°C° 0.3 mm 8 mps 758 mmHg 93%
    06:00 -17°C° 0.3 mm 7 mps 757 mmHg 93%
    07:00 -17°C° 0.3 mm 7 mps 757 mmHg 93%
    08:00 -16°C° 0.2 mm 6 mps 757 mmHg 93%
    09:00 -15°C° 0.2 mm 6 mps 757 mmHg 93%
    10:00 -14°C° 0.2 mm 5 mps 757 mmHg 94%
    11:00 -14°C° 0.1 mm 5 mps 757 mmHg 94%
    12:00 -12°C° 0.1 mm 4 mps 757 mmHg 94%
    13:00 -12°C° 0.1 mm 4 mps 757 mmHg 94%
    14:00 -12°C° 0.1 mm 3 mps 757 mmHg 94%
    15:00 -12°C° 0.1 mm 3 mps 757 mmHg 94%
    16:00 -10°C° 0.1 mm 2 mps 757 mmHg 95%
    17:00 -10°C° 0.3 mm 2 mps 757 mmHg 95%
    18:00 -10°C° 0.3 mm 2 mps 757 mmHg 96%
    19:00 -10°C° 0.3 mm 2 mps 757 mmHg 96%
    20:00 -9°C° 0.5 mm 2 mps 757 mmHg 97%
    21:00 -9°C° 0.5 mm 2 mps 757 mmHg 97%
    22:00 -9°C° 0.5 mm 2 mps 757 mmHg 97%
    23:00 -9°C° 0.4 mm 2 mps 757 mmHg 97%

    26 January, Saturday

    Time Temperature Precipitation Wind Pressure Humidity
    00:00 -9°C° 0.4 mm 2 mps 756 mmHg 97%
    01:00 -9°C° 0.4 mm 2 mps 756 mmHg 97%
    02:00 -9°C° 0.3 mm 2 mps 756 mmHg 97%
    03:00 -8°C° 0.3 mm 2 mps 755 mmHg 96%
    04:00 -8°C° 0.3 mm 2 mps 755 mmHg 96%
    05:00 -8°C° 0.2 mm 2 mps 755 mmHg 96%
    06:00 -9°C° 0.2 mm 3 mps 755 mmHg 96%
    07:00 -9°C° 0.2 mm 3 mps 754 mmHg 96%
    08:00 -8°C° 0 mm 3 mps 754 mmHg 96%
    09:00 -9°C° 0 mm 4 mps 754 mmHg 96%
    10:00 -9°C° 0 mm 4 mps 753 mmHg 95%
    11:00 -8°C° 0.1 mm 4 mps 753 mmHg 95%
    12:00 -7°C° 0.1 mm 4 mps 752 mmHg 94%
    13:00 -6°C° 0.1 mm 5 mps 751 mmHg 94%
    14:00 -5°C° 0.1 mm 4 mps 751 mmHg 94%
    15:00 -5°C° 0.1 mm 4 mps 750 mmHg 94%
    16:00 -5°C° 0.1 mm 4 mps 750 mmHg 94%
    17:00 -5°C° 0.3 mm 4 mps 750 mmHg 94%
    18:00 -5°C° 0.3 mm 3 mps 749 mmHg 95%
    19:00 -6°C° 0.3 mm 3 mps 749 mmHg 96%
    20:00 -5°C° 0.1 mm 2 mps 749 mmHg 96%
    21:00 -6°C° 0.1 mm 2 mps 749 mmHg 97%
    22:00 -6°C° 0.1 mm 2 mps 749 mmHg 97%
    23:00 -4°C° 0 mm 1 mps 749 mmHg 97%
    Show more